Denver Centennial, CO

8:53 PM MDT on October 18, 2017 (GMT -0600)
Centennial

Weather History for KAPA - December, 2012

Change the Weather History Date:

Friday, December 7, 2012

  Actual Average Record
Temperature  
Mean Temperature 39 °F -  
Max Temperature 53 °F 43 °F 64 °F (2008)
Min Temperature 24 °F 20 °F -10 °F (2013)
Degree Days  
Heating Degree Days 26    
Month to date heating degree days 143  
Moisture  
Dew Point 21 °F    
Average Humidity 56    
Maximum Humidity 85    
Minimum Humidity 26    
Precipitation  
Precipitation 0.00 in - - ()
Month to date precipitation 0.00  
Year to date precipitation 13.64  
Sea Level Pressure  
Sea Level Pressure 29.88 in    
Wind  
Wind Speed 6 mph (SE)    
Max Wind Speed 18 mph    
Max Gust Speed 35 mph    
Visibility 10 miles    
Events      
Averages and records for this station are not official NWS values.
T = Trace of Precipitation, MM = Missing Value Source: NWS Daily Summary

Daily Weather History Graph

Daily Weather History Graph

Search for Another Location

Airport or City:

Trip Planner

Search our weather history database for the weather conditions in past years. The results will help you decide how hot, cold, wet, or windy it might be!

Date:

Astronomy

Dec. 07, 2012 Rise Set
Actual Time 7:06 AM MST 4:35 PM MST
Civil Twilight 6:36 AM MST 5:05 PM MST
Nautical Twilight 6:03 AM MST 5:38 PM MST
Astronomical Twilight 5:30 AM MST 6:11 PM MST
Moon 12:30 AM MST (12/7) 12:32 PM MST (12/7)
Length of Visible Light 10h 28m
Length of Day
9h 28m
Last Quarter, 38% of the Moon is Illuminated
Dec 7
Last Quarter
Dec 13
New
Dec 19
First Quarter
Dec 28
Full
Jan 4
Last Quarter

Hourly Weather History & Observations

Time (MST) Temp. Windchill Dew Point Humidity Pressure Visibility Wind Dir Wind Speed Gust Speed Precip Events Conditions
12:53 AM 28.0 °F 20.8 °F 25.0 °F 88% 29.86 in 10.0 mi South 6.9 mph - N/A   Mostly Cloudy
1:53 AM 28.9 °F 22.8 °F 24.1 °F 82% 29.86 in 10.0 mi SSE 5.8 mph - N/A   Mostly Cloudy
2:53 AM 27.0 °F 23.0 °F 21.9 °F 81% 29.84 in 10.0 mi SSE 3.5 mph - N/A   Scattered Clouds
3:53 AM 30.0 °F 24.1 °F 21.9 °F 72% 29.81 in 10.0 mi South 5.8 mph - N/A   Scattered Clouds
4:53 AM 35.1 °F 30.1 °F 19.9 °F 54% 29.81 in 10.0 mi SSW 5.8 mph - N/A   Scattered Clouds
5:53 AM 27.0 °F 19.5 °F 19.9 °F 75% 29.87 in 10.0 mi SE 6.9 mph - N/A   Mostly Cloudy
6:53 AM 28.0 °F 20.8 °F 19.0 °F 69% 29.87 in 10.0 mi ESE 6.9 mph - N/A   Scattered Clouds
7:53 AM 30.0 °F - 19.9 °F 66% 29.90 in 10.0 mi Calm Calm - N/A   Mostly Cloudy
8:53 AM 35.1 °F 32.2 °F 25.0 °F 67% 29.90 in 10.0 mi ESE 3.5 mph - N/A   Mostly Cloudy
9:53 AM 44.1 °F 41.5 °F 21.9 °F 42% 29.86 in 10.0 mi West 4.6 mph - N/A   Scattered Clouds
10:53 AM 48.0 °F - 19.9 °F 33% 29.85 in 10.0 mi NW 3.5 mph - N/A   Scattered Clouds
11:53 AM 48.9 °F - 18.0 °F 29% 29.82 in 10.0 mi Calm Calm - N/A   Scattered Clouds
12:53 PM 51.1 °F - 17.1 °F 26% 29.80 in 10.0 mi SSE 5.8 mph - N/A   Mostly Cloudy
1:53 PM 45.0 °F 38.9 °F 24.1 °F 44% 29.83 in 10.0 mi East 12.7 mph 21.9 mph N/A   Mostly Cloudy
2:53 PM 41.0 °F 33.5 °F 23.0 °F 49% 29.89 in 10.0 mi East 13.8 mph 18.4 mph N/A   Mostly Cloudy
3:53 PM 39.0 °F 32.8 °F 21.9 °F 50% 29.91 in 10.0 mi ENE 9.2 mph - N/A   Mostly Cloudy
4:53 PM 35.1 °F 29.3 °F 21.0 °F 57% 29.94 in 10.0 mi ESE 6.9 mph - N/A   Mostly Cloudy
7:53 PM 30.0 °F 23.2 °F 19.0 °F 64% 30.02 in 10.0 mi South 6.9 mph - N/A   Overcast
8:53 PM 28.9 °F 22.8 °F 19.0 °F 67% 30.00 in 10.0 mi SE 5.8 mph - N/A   Mostly Cloudy
9:53 PM 27.0 °F 20.5 °F 18.0 °F 69% 29.95 in 10.0 mi ESE 5.8 mph - N/A   Mostly Cloudy
10:53 PM 28.9 °F 19.2 °F 19.0 °F 67% 29.90 in 10.0 mi SSE 11.5 mph - N/A   Mostly Cloudy
11:53 PM 28.9 °F 19.8 °F 19.0 °F 67% 29.87 in 10.0 mi SE 10.4 mph - N/A   Mostly Cloudy